Flag for Iran Weather past 2 weeks in Mashhad, Iran

Now
61 °F

Sunny.


Feels Like: 61 °F
Forecast: 54 / 78 °F
Wind: 5 mph from South

Location: Mashhad Airport

Current Time: Oct 2, 2014 at 6:53:10 AM

Latest Report: Oct 2, 2014 at 6:30 AM


Visibility: 10 mi

Pressure: 30.18 "Hg

Humidity: 52%

Dew point: 43 °F

Location of MashhadLocation

Historic Weather in Mashhad — Graph

°F

Mashhad temperature yesterday

Maximum temperature yesterday: 81 °F (at 2:00 PM)
Minimum temperature yesterday: 59 °F (at 4:30 AM)
Average temperature yesterday: 70 °F

Past Weeks' High & Low Weather Summary

 TemperatureHumidityPressure
High95 °F (Sep 17, 2:00 PM)77% (Sep 28, 5:00 AM)30.27 "Hg (Sep 28, 5:00 AM)
Low54 °F (Sep 20, 5:30 AM)6% (Sep 17, 2:00 PM)29.77 "Hg (Sep 26, 3:00 PM)
Average73 °F32%30.01 "Hg
* Reported Sep 17 6:30 AM — Oct 2 5:30 AM, Mashhad, Weather by CustomWeather, © 2014

Note: Actual official high and low records may vary slightly from our data, if they occured in-between our weather recording intervals... More about our weather records

Advertising

Mashhad weather history for previous 24 hours

 ConditionsComfort  
Time TempWeatherWind HumidityBarometerVisibility
5:30 AM
Oct 2
59 °FClear.7 mph55%30.15 "Hg4 mi
5:00 AM59 °FClear.5 mph55%30.15 "Hg5 mi
4:30 AM59 °FClear.5 mph55%30.15 "Hg10 mi
4:00 AM59 °FClear.5 mph59%30.15 "Hg10 mi
3:30 AM59 °FClear.No wind59%30.12 "Hg10 mi
3:00 AM59 °FClear.No wind59%30.12 "Hg10 mi
2:30 AM61 °FClear.5 mph52%30.09 "Hg10 mi
2:00 AM61 °FClear.7 mph52%30.09 "Hg10 mi
1:30 AM63 °FClear.5 mph49%30.09 "Hg10 mi
1:00 AM63 °FClear.No wind52%30.09 "Hg10 mi
12:30 AM63 °FClear.5 mph49%30.09 "Hg10 mi
12:00 AM63 °FClear.5 mph49%30.09 "Hg10 mi
11:30 PM
Oct 1
64 °FClear.5 mph46%30.09 "Hg10 mi
11:00 PM66 °FClear.7 mph43%30.09 "Hg10 mi
10:30 PM66 °FClear.7 mph43%30.09 "Hg10 mi
10:00 PM68 °FClear.7 mph40%30.09 "Hg10 mi
9:30 PM68 °FClear.7 mph38%30.09 "Hg10 mi
9:00 PM68 °FClear.7 mph40%30.09 "Hg10 mi
8:30 PM70 °FClear.7 mph35%30.09 "Hg10 mi
8:00 PM70 °FClear.9 mph38%30.09 "Hg10 mi
7:30 PM70 °FClear.9 mph38%30.09 "Hg10 mi
7:00 PM70 °FClear.9 mph38%30.09 "Hg10 mi
6:30 PM72 °FClear.12 mph33%30.07 "Hg10 mi
6:00 PM72 °FClear.12 mph33%30.07 "Hg10 mi
5:30 PM73 °FSunny.21 mph31%30.04 "Hg10 mi
5:00 PM75 °FSunny.18 mph29%30.04 "Hg10 mi
4:30 PM79 °FSunny.16 mph28%30.04 "Hg10 mi
4:00 PM81 °FSunny.12 mph26%30.04 "Hg10 mi
3:30 PM81 °FSunny.12 mph26%30.04 "Hg10 mi
3:00 PM81 °FSunny.9 mph28%30.04 "Hg10 mi
2:30 PM81 °FSunny.9 mph28%30.04 "Hg10 mi
2:00 PM81 °FSunny.9 mph28%30.04 "Hg10 mi
1:30 PM79 °FSunny.12 mph28%30.07 "Hg10 mi
1:00 PM79 °FSunny.7 mph32%30.07 "Hg10 mi
12:30 PM79 °FSunny.12 mph32%30.09 "Hg10 mi
12:00 PM77 °FSunny.12 mph34%30.12 "Hg10 mi
11:30 AM75 °FSunny.7 mph36%30.12 "Hg10 mi
11:00 AM75 °FSunny.7 mph36%30.15 "Hg10 mi
10:30 AM73 °FSunny.7 mph38%30.15 "Hg10 mi
10:00 AM72 °FSunny.5 mph41%30.18 "Hg10 mi
9:30 AM72 °FSunny.9 mph41%30.18 "Hg10 mi
9:00 AM70 °FSunny.5 mph43%30.18 "Hg10 mi
8:30 AM70 °FSunny.7 mph43%30.18 "Hg10 mi
8:00 AM68 °FSunny.5 mph46%30.18 "Hg10 mi
7:30 AM66 °FSunny.5 mph49%30.18 "Hg10 mi
6:55 AM64 °FSunny.5 mph52%30.18 "Hg10 mi
6:00 AM59 °FSunny.5 mph63%30.18 "Hg4 mi
Weather by CustomWeather, © 2014

See weather overviewHow to use our weather pages